Location: Unspecified
(0.0000°N, 0.0000°E)
Time: 01:19:42
(UTC+00:00)

Okean 3 - Pass Details

Date: 30 May 2019
Orbit: 578 x 600 km, 82.5° (Epoch: 24 June)

Event Time Altitude Azimuth Distance (km) Brightness Sun altitude
Exits shadow 18:49:03 17° 118° (ESE) 1,482 4.9 -11.9°
Maximum altitude 18:50:21 20° 94° (E) 1,371 4.8 -12.2°
Drops below altitude 10° 18:53:22 10° 47° (NE) 1,881 5.8 -12.9°
Sets 18:56:01 0° 30° (NNE) 2,776 6.8 -13.5°
